{"data":{"norad_id":49113,"intl_designator":"2021-076B","name":"PAYLOAD B","alt_names":[],"object_type":"PAYLOAD","status":"ACTIVE","operator":null,"country":"PRC","launch_date":"2021-08-24","launch_site_code":"JSC","launch_vehicle":null,"mission":null,"orbit_class":"UNKNOWN","rcs_meters":null,"size_class":null,"mass_kg":null,"dimensions":null,"purposes":[],"wikipedia_slug":null,"has_3d_model":false,"image_url":null,"decayed_at":null,"tle_current":{"epoch":"2026-09-20T04:48:19.859904Z","epoch_age_seconds":90027,"freshness":"FRESH","line1":"1 49113U 21076B   26263.20022986  .00000135  00000+0  66856-4 0  9995","line2":"2 49113  86.4029  44.9242 0017046 270.1679  89.7549 14.09486280260815","mean_motion":14.0948628,"eccentricity":0.0017046,"inclination_deg":86.4029,"raan_deg":44.9242,"arg_perigee_deg":270.1679,"mean_anomaly_deg":89.7549,"bstar":6.6856e-5,"rev_number":26081,"period_min":102.16488237119,"perigee_km":848.79013646245,"apogee_km":873.47024617108,"semimajor_km":7239.2671913168,"source":"CELESTRAK","updated_at":"2026-09-20T09:00:15.302505Z"}}}